TimeCDT,TemperatureF,Dew PointF,Humidity,Sea Level PressureIn,VisibilityMPH,Wind Direction,Wind SpeedMPH,Gust SpeedMPH,PrecipitationIn,Events,Conditions,WindDirDegrees,DateUTC
12:56 AM,73.0,66.9,81,29.78,10.0,South,6.9,-,N/A,,Clear,190,2013-08-20 05:56:00
1:56 AM,71.1,66.9,87,29.77,9.0,South,8.1,-,N/A,,Clear,180,2013-08-20 06:56:00
2:56 AM,71.1,66.9,87,29.75,9.0,South,6.9,-,N/A,,Clear,190,2013-08-20 07:56:00
3:56 AM,71.1,66.9,87,29.75,9.0,South,8.1,-,N/A,,Mostly Cloudy,190,2013-08-20 08:56:00
4:56 AM,70.0,66.9,90,29.75,9.0,SSW,8.1,-,N/A,,Clear,200,2013-08-20 09:56:00
5:56 AM,71.1,66.9,87,29.75,10.0,SSW,9.2,-,N/A,,Clear,210,2013-08-20 10:56:00
6:56 AM,68.0,64.9,90,29.76,8.0,Calm,Calm,-,N/A,,Clear,0,2013-08-20 11:56:00
7:56 AM,71.1,66.0,84,29.77,8.0,Calm,Calm,-,N/A,,Clear,0,2013-08-20 12:56:00
8:56 AM,75.9,66.0,71,29.78,10.0,Calm,Calm,-,N/A,,Clear,0,2013-08-20 13:56:00
9:56 AM,81.0,66.0,60,29.77,10.0,South,5.8,-,N/A,,Clear,190,2013-08-20 14:56:00
10:56 AM,86.0,66.0,51,29.77,10.0,South,4.6,-,N/A,,Clear,170,2013-08-20 15:56:00
11:56 AM,91.0,60.1,35,29.77,10.0,SSW,9.2,-,N/A,,Clear,200,2013-08-20 16:56:00
12:56 PM,93.0,63.0,37,29.75,10.0,South,9.2,16.1,N/A,,Clear,170,2013-08-20 17:56:00
1:56 PM,96.1,62.1,32,29.72,10.0,South,11.5,20.7,N/A,,Clear,170,2013-08-20 18:56:00
2:56 PM,99.0,62.1,30,29.70,10.0,South,16.1,-,N/A,,Clear,180,2013-08-20 19:56:00
3:56 PM,100.0,62.1,29,29.68,10.0,South,16.1,-,N/A,,Clear,180,2013-08-20 20:56:00
4:56 PM,100.0,63.0,29,29.67,10.0,South,15.0,24.2,N/A,,Partly Cloudy,190,2013-08-20 21:56:00
5:56 PM,99.0,61.0,28,29.67,10.0,SW,12.7,-,N/A,,Clear,230,2013-08-20 22:56:00
6:56 PM,93.9,64.9,38,29.67,10.0,South,9.2,20.7,N/A,,Clear,170,2013-08-20 23:56:00
7:56 PM,90.0,64.0,42,29.68,10.0,South,9.2,-,N/A,,Clear,170,2013-08-21 00:56:00
8:56 PM,86.0,59.0,40,29.71,10.0,NNW,4.6,-,N/A,,Clear,340,2013-08-21 01:56:00
9:56 PM,77.0,59.0,54,29.73,10.0,NW,6.9,-,N/A,,Clear,320,2013-08-21 02:56:00
10:56 PM,80.1,57.9,47,29.75,10.0,NNW,11.5,-,N/A,Thunderstorm,Thunderstorm,330,2013-08-21 03:56:00
11:44 PM,77.0,60.8,57,29.79,10.0,NNW,13.8,25.3,0.00,,Clear,340,2013-08-21 04:44:00
11:56 PM,73.9,60.1,62,29.76,10.0,North,6.9,17.3,0.00,,Clear,350,2013-08-21 04:56:00